Location: *
(52.2090°N, 4.1550°W)
Time: 04:51:42
(UTC+00:00)

Cosmos 2263 Rocket - Pass Details

Date: 19 July 2019
Orbit: 822 x 850 km, 71.0° (Epoch: 20 August)

Event Time Altitude Azimuth Distance (km) Brightness Sun altitude
Rises 21:34:37 0° 321° (NW) 3,425 8.0 -8.3°
Reaches altitude 10° 21:37:32 10° 308° (NW) 2,486 6.2 -8.6°
Maximum altitude 21:41:52 23° 258° (WSW) 1,743 4.2 -9.0°
Drops below altitude 10° 21:46:11 10° 208° (SSW) 2,472 4.4 -9.4°
Sets 21:49:06 0° 194° (SSW) 3,400 5.0 -9.7°
